パンスターズ彗星

C/2017 G3 ( PanSTARRS )

English version
Home page
Updated on October 8, 2017

---------------------------------------------------------------------

・ プロフィール

発見日 2017年4月7日
発見光度 19.6等
発見者 Pan-STARRS 1 telescope (Haleakala)

・ 写真集

・ 軌道要素

Epoch 2017 Mar. 28.0 TT = JDT 2457840.5
T 2017 Apr. 15.05420 TT                                 MPCW
q   2.5905341            (2000.0)            P               Q
z  +0.0033761      Peri.   73.09953     -0.83357228     -0.42518801
 +/-0.0000994      Node   279.46801     -0.53402442     +0.78357937
e   0.9912542      Incl.  159.05110     +0.14133354     +0.45301052
From 131 observations 2017 Apr. 7-May 23, mean residual 0".4.

・ 光度変化

        m1 = 14.0 + 5 logΔ + 10.0 log r

---------------------------------------------------------------------

軌道要素はM.P.E.C. 2017-T14に掲載されたものです。
光度グラフはComet for Windowsで作成したものです。

---------------------------------------------------------------------

Copyright(C) Seiichi Yoshida (comet@aerith.net). All rights reserved.